Retour au catalogue

KITA-36

ActifSSO
NORAD 69921·PAYLOAD·🇺🇸 United States
Ce nom de satellite n'a pas encore été confirmé par des sources officielles.

Lancé Jul 7, 2026 depuis Vandenberg Space Force Base

Loading…

Prochains Passages (prochaines 24 heures)

TLE

FraisSource: Space-Track

Époque: Sep 14, 2026, 16:27 UTC

1 69921U 26156BE  26257.68567040  .00003053  00000-0  30476-3 0  9999
2 69921  97.7466 157.0222 0005202 297.7153  62.3538 14.92243230 10345

Suivez KITA-36 en temps réel avec AllMySat

Download on the App Store